When you browse on this site, cookies collect data to enhance your experience and personalize the content and advertising you see.
Visit our Privacy Policy to learn more. By continuing to use the site, you agree to this use of cookies and data.
  • In Austria
  • List of Countries
  • For 7 days
  • Water Temperature
  • Weather Map
  • News
  • Weather Widgets
  • user-avatar
    Login

    Hourly Weather Novorodnikovka

    Today, 6 June, Saturday

    Time Temperature Precipitation Wind Pressure Humidity
    00:00 +17°C° 1.1 mm 5 mps 746 mmHg 70%
    01:00 +17°C° 1.1 mm 4 mps 746 mmHg 77%
    02:00 +15°C° 0.1 mm 5 mps 746 mmHg 72%
    03:00 +15°C° 0.1 mm 6 mps 746 mmHg 66%
    04:00 +15°C° 0.1 mm 6 mps 746 mmHg 61%
    05:00 +15°C° 0.1 mm 6 mps 746 mmHg 62%
    06:00 +16°C° 0.1 mm 6 mps 746 mmHg 64%
    07:00 +16°C° 0.1 mm 6 mps 745 mmHg 65%
    08:00 +17°C° 0.4 mm 6 mps 746 mmHg 66%
    09:00 +20°C° 0.4 mm 5 mps 746 mmHg 67%
    10:00 +21°C° 0.4 mm 5 mps 746 mmHg 68%
    11:00 +22°C° 0.9 mm 4 mps 746 mmHg 65%
    12:00 +23°C° 0.9 mm 4 mps 746 mmHg 62%
    13:00 +23°C° 0.9 mm 4 mps 746 mmHg 60%
    14:00 +23°C° 1.1 mm 4 mps 747 mmHg 59%
    15:00 +25°C° 1.1 mm 4 mps 747 mmHg 58%
    16:00 +25°C° 1.1 mm 4 mps 747 mmHg 57%
    17:00 +23°C° 0.3 mm 4 mps 747 mmHg 62%
    18:00 +22°C° 0.3 mm 3 mps 747 mmHg 66%
    19:00 +21°C° 0.3 mm 2 mps 747 mmHg 70%
    20:00 +20°C° 0 mm 2 mps 747 mmHg 74%
    21:00 +19°C° 0 mm 1 mps 747 mmHg 77%
    22:00 +18°C° 0 mm 1 mps 747 mmHg 81%
    23:00 +18°C° 0 mm 1 mps 747 mmHg 81%

    Tomorrow, 7 June, Sunday

    Time Temperature Precipitation Wind Pressure Humidity
    00:00 +18°C° 0 mm 1 mps 747 mmHg 80%
    01:00 +18°C° 0 mm 1 mps 747 mmHg 80%
    02:00 +16°C° 0 mm 1 mps 748 mmHg 81%
    03:00 +16°C° 0 mm 2 mps 748 mmHg 82%
    04:00 +16°C° 0 mm 2 mps 748 mmHg 83%
    05:00 +17°C° 0.1 mm 2 mps 748 mmHg 80%
    06:00 +18°C° 0.1 mm 2 mps 748 mmHg 78%
    07:00 +19°C° 0.1 mm 3 mps 748 mmHg 75%
    08:00 +20°C° 0.5 mm 3 mps 748 mmHg 72%
    09:00 +21°C° 0.5 mm 3 mps 748 mmHg 70%
    10:00 +21°C° 0.5 mm 4 mps 749 mmHg 67%
    11:00 +22°C° 0.6 mm 4 mps 748 mmHg 64%
    12:00 +23°C° 0.6 mm 4 mps 748 mmHg 61%
    13:00 +23°C° 0.6 mm 4 mps 748 mmHg 57%
    14:00 +24°C° 0.7 mm 3 mps 748 mmHg 59%
    15:00 +24°C° 0.7 mm 3 mps 748 mmHg 60%
    16:00 +22°C° 0.7 mm 3 mps 748 mmHg 62%
    17:00 +22°C° 0.5 mm 3 mps 748 mmHg 67%
    18:00 +21°C° 0.5 mm 3 mps 748 mmHg 73%
    19:00 +20°C° 0.5 mm 2 mps 748 mmHg 78%
    20:00 +19°C° 0.2 mm 2 mps 748 mmHg 81%
    21:00 +18°C° 0.2 mm 2 mps 748 mmHg 85%
    22:00 +17°C° 0.2 mm 2 mps 748 mmHg 88%
    23:00 +17°C° 0.1 mm 2 mps 748 mmHg 89%

    Day after tomorrow, 8 June, Monday

    Time Temperature Precipitation Wind Pressure Humidity
    00:00 +16°C° 0.1 mm 2 mps 748 mmHg 89%
    01:00 +16°C° 0.1 mm 1 mps 748 mmHg 89%
    02:00 +16°C° 0.5 mm 2 mps 748 mmHg 89%
    03:00 +16°C° 0.5 mm 3 mps 748 mmHg 90%
    04:00 +15°C° 0.5 mm 4 mps 748 mmHg 91%
    05:00 +15°C° 0.9 mm 4 mps 748 mmHg 91%
    06:00 +14°C° 0.9 mm 4 mps 748 mmHg 91%
    07:00 +14°C° 0.9 mm 5 mps 748 mmHg 92%
    08:00 +14°C° 1.2 mm 5 mps 748 mmHg 91%
    09:00 +14°C° 1.2 mm 4 mps 748 mmHg 89%
    10:00 +15°C° 1.2 mm 4 mps 748 mmHg 88%
    11:00 +15°C° 0.3 mm 5 mps 748 mmHg 86%
    12:00 +15°C° 0.3 mm 5 mps 748 mmHg 84%
    13:00 +16°C° 0.3 mm 6 mps 748 mmHg 82%
    14:00 +16°C° 0 mm 5 mps 748 mmHg 80%
    15:00 +17°C° 0 mm 5 mps 748 mmHg 78%
    16:00 +17°C° 0 mm 5 mps 748 mmHg 76%
    17:00 +17°C° 0.1 mm 5 mps 747 mmHg 74%
    18:00 +18°C° 0.1 mm 4 mps 747 mmHg 73%
    19:00 +18°C° 0.1 mm 3 mps 747 mmHg 71%
    20:00 +17°C° 0 mm 3 mps 747 mmHg 71%
    21:00 +17°C° 0 mm 3 mps 747 mmHg 71%
    22:00 +17°C° 0 mm 3 mps 748 mmHg 71%
    23:00 +16°C° 0 mm 3 mps 748 mmHg 73%

    9 June, Tuesday

    Time Temperature Precipitation Wind Pressure Humidity
    00:00 +16°C° 0 mm 3 mps 748 mmHg 75%
    01:00 +14°C° 0 mm 3 mps 748 mmHg 77%
    02:00 +14°C° 0 mm 3 mps 748 mmHg 76%
    03:00 +15°C° 0 mm 4 mps 748 mmHg 75%
    04:00 +15°C° 0 mm 4 mps 748 mmHg 74%
    05:00 +17°C° 0 mm 4 mps 749 mmHg 72%
    06:00 +16°C° 0 mm 5 mps 749 mmHg 69%
    07:00 +17°C° 0 mm 5 mps 749 mmHg 66%
    08:00 +20°C° 0 mm 6 mps 749 mmHg 62%
    09:00 +21°C° 0 mm 6 mps 750 mmHg 58%
    10:00 +23°C° 0 mm 7 mps 750 mmHg 53%
    11:00 +24°C° 0 mm 7 mps 750 mmHg 51%
    12:00 +26°C° 0 mm 7 mps 750 mmHg 49%
    13:00 +27°C° 0 mm 8 mps 751 mmHg 47%
    14:00 +26°C° 0 mm 6 mps 751 mmHg 49%
    15:00 +26°C° 0 mm 5 mps 751 mmHg 52%
    16:00 +26°C° 0 mm 4 mps 751 mmHg 54%
    17:00 +25°C° 0 mm 4 mps 750 mmHg 57%
    18:00 +24°C° 0 mm 3 mps 750 mmHg 60%
    19:00 +22°C° 0 mm 3 mps 750 mmHg 63%
    20:00 +21°C° 0 mm 3 mps 750 mmHg 62%
    21:00 +20°C° 0 mm 4 mps 750 mmHg 61%
    22:00 +19°C° 0 mm 4 mps 750 mmHg 61%
    23:00 +19°C° 0 mm 4 mps 750 mmHg 61%

    10 June, Wednesday

    Time Temperature Precipitation Wind Pressure Humidity
    00:00 +19°C° 0 mm 4 mps 750 mmHg 61%
    01:00 +18°C° 0 mm 4 mps 750 mmHg 62%
    02:00 +19°C° 0 mm 5 mps 750 mmHg 59%
    03:00 +19°C° 0 mm 5 mps 750 mmHg 56%
    04:00 +19°C° 0 mm 5 mps 750 mmHg 54%
    05:00 +19°C° 0 mm 5 mps 750 mmHg 56%
    06:00 +19°C° 0 mm 5 mps 750 mmHg 59%
    07:00 +19°C° 0 mm 5 mps 750 mmHg 62%
    08:00 +21°C° 0 mm 5 mps 750 mmHg 59%
    09:00 +22°C° 0 mm 6 mps 750 mmHg 57%
    10:00 +24°C° 0 mm 6 mps 750 mmHg 55%
    11:00 +26°C° 0 mm 6 mps 751 mmHg 51%
    12:00 +28°C° 0 mm 6 mps 751 mmHg 47%
    13:00 +29°C° 0 mm 6 mps 751 mmHg 43%
    14:00 +29°C° 0 mm 6 mps 750 mmHg 43%
    15:00 +30°C° 0 mm 6 mps 750 mmHg 43%
    16:00 +30°C° 0 mm 5 mps 750 mmHg 42%
    17:00 +29°C° 0 mm 5 mps 750 mmHg 47%
    18:00 +28°C° 0 mm 5 mps 750 mmHg 52%
    19:00 +27°C° 0 mm 5 mps 750 mmHg 57%
    20:00 +25°C° 0.2 mm 5 mps 750 mmHg 58%
    21:00 +23°C° 0.2 mm 5 mps 750 mmHg 60%
    22:00 +21°C° 0.2 mm 5 mps 750 mmHg 61%
    23:00 +20°C° 0.6 mm 4 mps 750 mmHg 66%

    11 June, Thursday

    Time Temperature Precipitation Wind Pressure Humidity
    00:00 +19°C° 0.6 mm 4 mps 750 mmHg 71%
    01:00 +18°C° 0.6 mm 3 mps 750 mmHg 76%
    02:00 +18°C° 0.3 mm 3 mps 750 mmHg 74%
    03:00 +19°C° 0.3 mm 3 mps 750 mmHg 72%
    04:00 +19°C° 0.3 mm 4 mps 750 mmHg 70%
    05:00 +20°C° 0 mm 3 mps 750 mmHg 69%
    06:00 +21°C° 0 mm 3 mps 750 mmHg 67%
    07:00 +23°C° 0 mm 2 mps 751 mmHg 65%
    08:00 +24°C° 0 mm 3 mps 751 mmHg 60%
    09:00 +26°C° 0 mm 3 mps 751 mmHg 56%
    10:00 +28°C° 0 mm 3 mps 751 mmHg 51%
    11:00 +29°C° 0 mm 3 mps 751 mmHg 47%
    12:00 +30°C° 0 mm 3 mps 751 mmHg 43%
    13:00 +31°C° 0 mm 3 mps 751 mmHg 39%
    14:00 +31°C° 0 mm 3 mps 750 mmHg 38%
    15:00 +32°C° 0 mm 2 mps 750 mmHg 37%
    16:00 +32°C° 0 mm 2 mps 750 mmHg 35%
    17:00 +31°C° 0 mm 2 mps 750 mmHg 40%
    18:00 +30°C° 0 mm 1 mps 750 mmHg 44%
    19:00 +29°C° 0 mm 1 mps 749 mmHg 48%
    20:00 +27°C° 0 mm 1 mps 749 mmHg 49%
    21:00 +26°C° 0 mm 2 mps 749 mmHg 49%
    22:00 +24°C° 0 mm 2 mps 749 mmHg 49%
    23:00 +24°C° 0 mm 2 mps 749 mmHg 52%
    Show more